User: anonymous   Login
Location: ??
(35.5672°N, 139.6509°E)
Time: 11:59:38
(UTC+00:00)
Language:

SJ 16-02 - Orbit

View from above orbital plane
View from above orbital plane
View from above satellite
View from above satellite

Ground track
Ground track

The orbit data is extracted from the following two-line orbital elements,

1 41634U 16043A   24279.19623424  .00010414  00000-0  10773-2 0  9997
2 41634  75.0047  10.0231 0006664 103.4448 256.7482 14.90126969448687
Epoch (UTC): 05 October 2024 04:42:34
Eccentricity: 0.0006664
inclination: 75.0047°
perigee height: 593 km
apogee height: 602 km
right ascension of ascending node: 10.0231°
argument of perigee: 103.4448°
revolutions per day: 14.90126969
mean anomaly at epoch: 256.7482°
orbit number at epoch: 44868

The dashed part of the orbit path shows where the satellite is in the earth's shadow,  

DLR